Epoch 2024 Mar. 31.0 TT = JDT 2460400.5 T 2023 Feb. 18.23682 TT Rudenko q 1.7354287 (2000.0) P Q z -0.0001561 Peri. 88.36815 +0.01736342 +0.99012588 +/-0.0000003 Node 171.58336 -0.09170211 -0.13695918 e 1.0002709 Incl. 108.13242 +0.99563509 -0.02988185 >From 2839 observations 2022 Jan. 9-2024 Jan. 9, mean residual 0".9.
m1 = 3.5 + 5 log d + 18.5 log r(t - 10) [ ,38] ( - 2023 Mar. 28) m1 = 4.5 + 5 log d + 15.0 log r(t - 30) [38, ] (2023 Mar. 28 - )